Home   Weather   41°44'N, 72°43'W   Past weeks
Flag for USA

Past Weather in 41°44'N, 72°43'W, USA — Yesterday and Last 2 Weeks

Now
57 °F

Heavy rain. Fog.


Feels Like: 55 °F
Forecast: 58 / 49 °F
Wind: 9 mph from East

Location: Hartford-Brainard Airport

Current Time: Oct 16, 2019 at 9:08:00 pm

Latest Report: Oct 16, 2019 at 7:53 pm


Visibility: 5 mi

Pressure: 29.52 "Hg

Humidity: 90%

Dew Point: 54 °F

Location of 41°44'N, 72°43'WLocation

Past Weather in 41°44'N, 72°43'W — Graph

°F

41°44'N, 72°43'W Temperature Yesterday

Maximum temperature yesterday: 62 °F (at 3:53 pm)
Minimum temperature yesterday: 42 °F (at 6:53 am)
Average temperature yesterday: 52 °F

High & Low Weather Summary for the Past Weeks

 TemperatureHumidityPressure
High87 °F (Oct 2, 2:53 pm)100% (Oct 4, 7:35 am)30.48 "Hg (Oct 4, 7:35 am)
Low37 °F (Oct 5, 6:53 am)32% (Oct 5, 3:53 pm)29.52 "Hg (Oct 16, 7:53 pm)
Average56 °F74%30.11 "Hg
* Reported Oct 1 7:53 pm — Oct 16 7:53 pm, 41°44'N, 72°43'W. Weather by CustomWeather, © 2019

Note: Actual official high and low records may vary slightly from our data, if they occured in-between our weather recording intervals... More about our weather records

Advertising

41°44'N, 72°43'W Weather History for the Previous 24 Hours

Scroll right to see more
 ConditionsComfort  
Time TempWeatherWind HumidityBarometerVisibility
7:53 pm
Wed, Oct 16
57 °FHeavy rain. Fog.9 mph90%29.52 "Hg5 mi
6:53 pm57 °FRain. Fog.9 mph90%29.59 "Hg4 mi
5:53 pm57 °FRain. Fog.6 mph90%29.65 "Hg4 mi
5:05 pm58 °FLight rain. Mostly cloudy.7 mph84%29.70 "Hg3 mi
4:53 pm59 °FLight rain. Cloudy.5 mph81%29.71 "Hg5 mi
3:53 pm61 °FBroken clouds.10 mph70%29.75 "Hg10 mi
2:53 pm62 °FPartly sunny.9 mph65%29.78 "Hg10 mi
1:53 pm63 °FOvercast.10 mph63%29.82 "Hg10 mi
12:53 pm62 °FOvercast.6 mph65%29.87 "Hg10 mi
11:53 am60 °FPartly sunny.No wind69%29.90 "Hg10 mi
10:53 am55 °FSunny.5 mph74%29.95 "Hg10 mi
9:53 am50 °FSunny.No wind77%29.97 "Hg10 mi
8:53 am44 °FSunny.No wind85%30.00 "Hg10 mi
7:53 am40 °FSunny.5 mph89%30.03 "Hg10 mi
6:53 am38 °FClear.3 mph93%30.04 "Hg10 mi
5:53 am39 °FClear.No wind93%30.05 "Hg10 mi
5:11 am40 °FClear.No wind89%30.07 "Hg10 mi
4:53 am39 °FFog.No wind93%30.06 "Hg1 mi
4:34 am40 °FFog.No wind89%30.07 "Hg3 mi
4:13 am40 °FFog.No wind93%30.06 "Hg2 mi
3:53 am39 °FFog.No wind96%30.06 "Hg1 mi
3:36 am40 °FFog.No wind93%30.07 "Hg4 mi
3:14 am41 °FFog.No wind93%30.07 "Hg1 mi
2:53 am41 °FClear.No wind93%30.08 "Hg7 mi
2:05 am41 °FClear.No wind93%30.10 "Hg9 mi
1:53 am42 °FFog.No wind92%30.09 "Hg2 mi
1:19 am42 °FFog.No wind92%30.09 "Hg2 mi
12:53 am44 °FClear.No wind89%30.09 "Hg10 mi
11:53 pm
Tue, Oct 15
44 °FClear.No wind89%30.08 "Hg10 mi
10:53 pm45 °FClear.3 mph90%30.10 "Hg10 mi
9:53 pm47 °FClear.No wind83%30.11 "Hg10 mi
Weather by CustomWeather, © 2019

See weather overview